Onweer radar Meer informatie blitzortung!


Regen radar Meer informatie rain snow radar


Bezoek onze andere website:

Template documentation
and downloads

And another site



15 daagse weersverwachting Zandbergsche Reevliet (NL)

  • Overzicht
  • Per uur
  • 15 dagen
  • Extra
  • Vergelijk
  • Kaarten
  • Dagkaart
  • Meer »
  • Info
  • Statistieken
  • Directe link
    Temp 6h Neerslag Wind  
 06:08     21:30    Daglengte: 15:22 Vandaag
02:00
15°
 
4
08:00
14°
 
5
14:00
18°
4.8 mm
5
20:00
16°
2.4 mm
4
 06:09     21:28    Daglengte: 15:19 Morgen
02:00
14°
 
2
08:00
14°
 
1
14:00
18°
 
3
20:00
18°
 
4
 06:11     21:26    Daglengte: 15:15 Dinsdag 03 Aug
02:00
13°
 
2
08:00
13°
 
2
14:00
20°
 
1
20:00
20°
 
4
Locatie info
Region: Noord-Brabant
Latitude: 51.6635°N
Longitude: 4.5446°E
4 masl
Temp/Neerslag /Baro Onweer/Dauwpunt
    Temp Baro 1h Neerslag Dauwpunt Wind UV Bewolking  
 06:08     21:30    Daglengte: 15:22 Vandaag
01:00
15°
1009.4 hPa
46%
14.3°
3
Windvlaag: 4.6 m/s
13%
02:00
15°
1009.2 hPa
19%
14.0°
4
Windvlaag: 5.1 m/s
31%
03:00
15°
1009.0 hPa
16%
14.0°
4
Windvlaag: 5.1 m/s
42%
04:00
14°
1008.7 hPa
14%
13.9°
4
Windvlaag: 5.1 m/s
55%
05:00
14°
1008.3 hPa
13%
13.8°
4
Windvlaag: 4.7 m/s
50%
06:00
14°
1008.3 hPa
12%
13.8°
4
Windvlaag: 4.7 m/s
56%
07:00
14°
1008.6 hPa
12%
13.9°
4
Windvlaag: 5.1 m/s
57%
08:00
14°
1008.6 hPa
14%
14.3°
5
Windvlaag: 5.8 m/s
67%
09:00
15°
1008.6 hPa
65%
14.4°
5
Windvlaag: 5 m/s
65%
10:00
15°
1009.0 hPa 0.4 mm
78%
14.5°
4
Windvlaag: 5.2 m/s
61%
11:00
16°
1009.4 hPa 0.3 mm
82%
14.9°
4
Windvlaag: 5.5 m/s
67%
12:00
17°
1009.6 hPa 0.5 mm
82%
15.0°
4
Windvlaag: 4.3 m/s
70%
13:00
17°
1009.5 hPa 1.4 mm
82%
15.1°
4
Windvlaag: 3 m/s
59%
14:00
18°
1009.4 hPa 2.3 mm
82%
13.5°
5
Windvlaag: 1.9 m/s
59%
15:00
18°
1009.6 hPa 2.4 mm
82%
12.7°
5
Windvlaag: -0.6 m/s
47%
16:00
18°
1009.7 hPa
79%
12.1°
5
Windvlaag: -1 m/s
34%
17:00
18°
1009.7 hPa
76%
12.6°
5
Windvlaag: -1.5 m/s
35%
18:00
18°
1009.9 hPa
82%
12.4°
5
Windvlaag: -2.7 m/s
37%
19:00
17°
1010.0 hPa
82%
12.6°
4
Windvlaag: -3.8 m/s
55%
20:00
16°
1010.4 hPa
80%
12.9°
4
Windvlaag: -3.9 m/s
22%
21:00
16°
1010.6 hPa
71%
12.7°
3
Windvlaag: -2.7 m/s
26%
22:00
15°
1011.4 hPa
18%
12.7°
3
Windvlaag: -1.7 m/s
47%
23:00
15°
1011.7 hPa
58%
13.0°
2
Windvlaag: -1 m/s
70%
 06:09     21:28    Daglengte: 15:19 Morgen
00:00
15°
1011.9 hPa
61%
12.9°
2
Windvlaag: 0.3 m/s
56%
01:00
14°
1011.9 hPa
19%
13.0°
2
Windvlaag: -0.1 m/s
61%
02:00
14°
1011.9 hPa
18%
12.9°
2
Windvlaag: -0.4 m/s
33%
03:00
14°
1011.8 hPa
22%
12.8°
2
Windvlaag: -0.5 m/s
20%
04:00
14°
1012.0 hPa
22%
12.9°
2
Windvlaag: -0.7 m/s
14%
05:00
14°
1012.0 hPa
17%
12.6°
1
Windvlaag: -0.4 m/s
17%
06:00
14°
1012.4 hPa
14%
12.3°
1
Windvlaag: 0.1 m/s
16%
07:00
13°
1012.7 hPa
14%
12.1°
1
Windvlaag: 0.3 m/s
16%
08:00
14°
1013.1 hPa
14%
12.4°
1
Windvlaag: 0.3 m/s
18%
09:00
15°
1013.4 hPa
14%
11.7°
1
Windvlaag: 0.4 m/s
20%
10:00
16°
1013.6 hPa
14%
10.6°
2
Windvlaag: 0.2 m/s
18%
11:00
16°
1013.8 hPa
14%
10.1°
2
Windvlaag: 1 m/s
11%
12:00
17°
1014.0 hPa
14%
10.6°
2
Windvlaag: 2.5 m/s
9%
13:00
18°
1014.0 hPa
14%
10.6°
3
Windvlaag: 1.1 m/s
10%
14:00
18°
1013.9 hPa
14%
10.3°
3
Windvlaag: -1.5 m/s
13%
15:00
19°
1013.8 hPa
14%
10.3°
4
Windvlaag: -2.8 m/s
29%
16:00
19°
1013.8 hPa
14%
10.4°
4
Windvlaag: -2.9 m/s
9%
17:00
19°
1013.4 hPa
21%
11.3°
4
Windvlaag: -2.7 m/s
11%
18:00
19°
1013.4 hPa
21%
10.4°
4
Windvlaag: -3.1 m/s
7%
19:00
18°
1013.5 hPa
21%
9.0°
4
Windvlaag: -3.2 m/s
19%
20:00
18°
1013.6 hPa
21%
8.2°
4
Windvlaag: -3.5 m/s
33%
21:00
16°
1013.8 hPa
21%
10.0°
3
Windvlaag: -3.3 m/s
26%
22:00
15°
1014.3 hPa
21%
10.9°
2
Windvlaag: -1.9 m/s
19%
23:00
14°
1014.6 hPa
21%
10.7°
2
Windvlaag: -1.6 m/s
6%
 06:11     21:26    Daglengte: 15:15 Dinsdag 03 Aug
00:00
14°
1014.7 hPa
21%
10.5°
2
Windvlaag: -1.2 m/s
10%
01:00
13°
1014.6 hPa
21%
10.4°
2
Windvlaag: -1.1 m/s
50%
02:00
13°
1014.5 hPa
21%
10.1°
2
Windvlaag: -0.9 m/s
39%
03:00
12°
1014.3 hPa
21%
10.0°
1
Windvlaag: -0.9 m/s
52%
04:00
12°
1014.1 hPa
21%
10.4°
1
Windvlaag: -0.7 m/s
51%
05:00
12°
1014.0 hPa
21%
10.7°
2
Windvlaag: -0.6 m/s
56%
06:00
12°
1013.9 hPa
21%
10.8°
2
Windvlaag: -0.6 m/s
54%
07:00
12°
1014.1 hPa
21%
10.6°
1
Windvlaag: -0.7 m/s
60%
08:00
13°
1014.3 hPa
21%
9.9°
2
Windvlaag: -0.5 m/s
57%
09:00
15°
1014.5 hPa
21%
9.8°
2
Windvlaag: -1 m/s
55%
10:00
16°
1014.5 hPa
21%
9.6°
2
Windvlaag: -2.8 m/s
41%
11:00
17°
1014.4 hPa
21%
8.9°
2
Windvlaag: -3.2 m/s
39%
12:00
18°
1014.0 hPa
21%
8.5°
2
Windvlaag: -3.1 m/s
26%
13:00
19°
1013.8 hPa
21%
8.1°
2
Windvlaag: -2.7 m/s
19%
14:00
20°
1013.4 hPa
21%
8.1°
1
Windvlaag: -2.6 m/s
13%
15:00
21°
1013.0 hPa
21%
8.4°
1
Windvlaag: 2.7 m/s
12%
16:00
22°
1012.6 hPa
21%
8.5°
2
Windvlaag: 2.8 m/s
9%
17:00
22°
1012.2 hPa
21%
10.1°
2
Windvlaag: 4.6 m/s
18%
18:00
22°
1011.9 hPa
21%
11.7°
3
Windvlaag: 5.5 m/s
18%
19:00
21°
1012.0 hPa
21%
10.7°
4
Windvlaag: 4.6 m/s
34%
20:00
20°
1012.2 hPa
21%
10.2°
4
Windvlaag: 4.9 m/s
18%
21:00
19°
1012.7 hPa
21%
11.3°
4
Windvlaag: 5 m/s
15%
22:00
18°
1013.2 hPa
21%
11.9°
3
Windvlaag: 6.6 m/s
15%
23:00
17°
1013.3 hPa
21%
11.4°
3
Windvlaag: 7.2 m/s
8%
 06:12     21:25    Daglengte: 15:13 Woensdag 04 Aug
00:00
16°
1013.4 hPa
21%
11.6°
3
Windvlaag: 6.7 m/s
13%
Temp/Neerslag /Baro Onweer/Dauwpunt
    Temp Baro Neerslag Dauwpunt Wind Bewolking  
 06:08     21:30    Daglengte: 15:22 Vandaag
02:00
15°
1009.2 hPa   14.0°
4
31%
05:00
14°
1008.3 hPa   13.8°
4
50%
08:00
14°
1008.6 hPa   14.3°
5
67%
11:00
16°
1009.4 hPa 0.7 mm 14.9°
4
67%
14:00
18°
1009.4 hPa 4.1 mm 13.5°
5
59%
17:00
18°
1009.7 hPa 2.4 mm 12.6°
5
35%
20:00
16°
1010.4 hPa   12.9°
4
22%
23:00
15°
1011.7 hPa   13.0°
2
70%
 06:09     21:28    Daglengte: 15:19 Morgen
02:00
14°
1011.9 hPa   12.9°
2
33%
05:00
14°
1012.0 hPa   12.6°
1
17%
08:00
14°
1013.1 hPa   12.4°
1
18%
11:00
16°
1013.8 hPa   10.1°
2
11%
14:00
18°
1013.9 hPa   10.3°
3
13%
17:00
19°
1013.4 hPa   11.3°
4
11%
20:00
18°
1013.6 hPa   8.2°
4
33%
23:00
14°
1014.6 hPa   10.7°
2
6%
 06:11     21:26    Daglengte: 15:15 Dinsdag 03 Aug
02:00
13°
1014.5 hPa   10.1°
2
39%
05:00
12°
1014.0 hPa   10.7°
2
56%
08:00
13°
1014.3 hPa   9.9°
2
57%
11:00
17°
1014.4 hPa   8.9°
2
39%
14:00
20°
1013.4 hPa   8.1°
1
13%
17:00
22°
1012.2 hPa   10.1°
2
18%
20:00
20°
1012.2 hPa   10.2°
4
18%
23:00
17°
1013.3 hPa   11.4°
3
8%
 06:12     21:25    Daglengte: 15:13 Woensdag 04 Aug
02:00
15°
1013.2 hPa   12.0°
2
8%
05:00
14°
1012.4 hPa 7.6 mm 11.2°
2
1%
08:00
13°
1013.0 hPa 8.6 mm 12.1°
2
1%
11:00
14°
1013.8 hPa 12.1 mm 12.2°
2
1%
14:00
14°
1014.1 hPa 16.1 mm 13.1°
3
1%
17:00
16°
1014.7 hPa 16.6 mm 13.3°
2
1%
20:00
15°
1014.7 hPa 16.8 mm 13.2°
1
1%
23:00
13°
1015.2 hPa 16.8 mm 12.0°
1
1%
 06:14     21:23    Daglengte: 15:09 Donderdag 05 Aug
02:00
12°
1014.5 hPa 16.8 mm 11.5°
1
0%
05:00
11°
1013.0 hPa 16.8 mm 10.7°
2
0%
08:00
13°
1012.0 hPa 16.8 mm 12.6°
3
0%
11:00
17°
1010.9 hPa 16.8 mm 12.7°
4
1%
14:00
18°
1009.1 hPa 16.8 mm 10.8°
5
1%
17:00
17°
1007.2 hPa 17.3 mm 12.9°
6
1%
20:00
14°
1005.4 hPa 17.9 mm 12.5°
6
1%
23:00
14°
1003.8 hPa 18.6 mm 12.7°
5
1%
 06:15     21:21    Daglengte: 15:06 Vrijdag 06 Aug
02:00
14°
1002.9 hPa 18.7 mm 13.4°
4
1%
05:00
14°
1001.4 hPa 19.6 mm 13.9°
5
1%
08:00
14°
1000.4 hPa 20.5 mm 13.7°
6
1%
11:00
15°
999.8 hPa 25.9 mm 14.3°
7
1%
14:00
18°
1000.1 hPa 27.4 mm 15.5°
7
1%
17:00
19°
1001.1 hPa 28.9 mm 15.2°
7
1%
20:00
18°
1002.7 hPa 29.8 mm 14.9°
7
0%
23:00
16°
1004.9 hPa 30.4 mm 14.2°
7
0%
 06:17     21:19    Daglengte: 15:02 Zaterdag 07 Aug
02:00
15°
1005.9 hPa 30.5 mm 13.5°
6
0%
05:00
14°
1007.0 hPa 30.6 mm 13.2°
5
0%
08:00
15°
1007.7 hPa 30.6 mm 14.0°
6
1%
11:00
18°
1008.6 hPa 30.8 mm 14.0°
6
1%
14:00
21°
1008.4 hPa 30.8 mm 11.5°
6
1%
17:00
21°
1008.3 hPa 30.9 mm 12.2°
4
1%
20:00
19°
1008.2 hPa 30.9 mm 13.1°
3
1%
23:00
16°
1008.5 hPa   14.7°
2
1%
 06:18     21:17    Daglengte: 14:59 Zondag 08 Aug
02:00
16°
1007.9 hPa 65.3 mm 14.0°
3
1%
08:00
16°
1006.7 hPa 69.2 mm 15.5°
5
1%
14:00
22°
1008.2 hPa 73.4 mm 12.7°
8
0%
20:00
16°
1009.0 hPa 76.9 mm 13.6°
9
0%
 06:20     21:15    Daglengte: 14:55 Maandag 09 Aug
02:00
16°
1012.4 hPa 79.6 mm 13.3°
10
1%
08:00
16°
1015.3 hPa 81.0 mm 13.7°
7
1%
14:00
18°
1018.9 hPa 84.8 mm 14.1°
8
1%
20:00
18°
1021.1 hPa 86.0 mm 11.4°
5
1%
 06:21     21:14    Daglengte: 14:53 Dinsdag 10 Aug
02:00
15°
1022.4 hPa 86.1 mm 13.0°
5
1%
08:00
16°
1022.6 hPa 86.2 mm 13.7°
4
1%
14:00
20°
1023.2 hPa 88.5 mm 15.7°
5
1%
20:00
19°
1019.8 hPa 0.5 mm 13.3°
3
32%
 06:23     21:12    Daglengte: 14:49 Woensdag 11 Aug
02:00
15°
1020.7 hPa 0.2 mm 12.0°
2
39%
08:00
15°
1020.6 hPa   12.4°
1
43%
14:00
22°
1020.5 hPa 0.3 mm 12.3°
3
49%
20:00
20°
1020.2 hPa 0.3 mm 13.0°
3
40%
 06:25     21:10    Daglengte: 14:45 Donderdag 12 Aug
02:00
15°
1020.6 hPa 0.1 mm 11.8°
0
36%
08:00
16°
1020.3 hPa 0.1 mm 12.4°
0
51%
14:00
22°
1020.0 hPa 0.2 mm 13.1°
1
55%
20:00
20°
1019.6 hPa 0.2 mm 13.8°
2
48%
 06:26     21:08    Daglengte: 14:42 Vrijdag 13 Aug
02:00
16°
1020.0 hPa 0.1 mm 12.8°
1
54%
08:00
17°
1019.8 hPa   13.2°
1
61%
14:00
23°
1019.7 hPa 0.4 mm 13.6°
2
53%
20:00
21°
1019.1 hPa 0.1 mm 13.6°
1
44%
 06:28     21:06    Daglengte: 14:38 Zaterdag 14 Aug
02:00
17°
1019.4 hPa 0.2 mm 12.8°
1
55%
08:00
16°
1019.1 hPa 0.3 mm 13.0°
1
55%
14:00
23°
1019.0 hPa 0.7 mm 13.7°
2
61%
20:00
20°
1018.3 hPa 0.3 mm 13.9°
2
45%
 06:29     21:04    Daglengte: 14:35 Zondag 15 Aug
02:00
16°
1018.5 hPa 0.1 mm 12.6°
1
41%
08:00
16°
1018.1 hPa 0.2 mm 13.3°
2
51%
14:00
22°
1018.0 hPa 0.6 mm 14.2°
3
57%
20:00
20°
1017.7 hPa 0.6 mm 13.9°
3
47%
  CAPE Lifted Index Hail Supercell Tornado SRH 3km CL BTM PRES CL TOP PRES Swiss DWD icon SMHI TS
 06:08     21:30    Daglengte: 15:22 Vandaag
01:00 235 J/kg -1.0 K 0 % 0 % 0 % 0 m²/s² 0 0 -0.19 2
02:00 123 J/kg -0.5 K 0 % 0 % 0 % 0 m²/s² 0 0 0.28 3
03:00 0 J/kg -0.3 K 0 % 0 % 0 % 0 m²/s² 0 0 0.3 3
04:00 0 J/kg -0.5 K 0 % 0 % 0 % 0 m²/s² 0 0 -0.05 3
05:00 0 J/kg -0.7 K 0 % 0 % 0 % 0 m²/s² 0 0 -0.16 3
06:00 0 J/kg -0.8 K 0 % 0 % 0 % 0 m²/s² 0 0 -0.2 3
07:00 0 J/kg -0.4 K 0 % 0 % 0 % 0 m²/s² 0 0 0.29 3
08:00 0 J/kg -0.1 K 0 % 0 % 0 % 0 m²/s² 0 0 0.92 3
09:00 0 J/kg -0.4 K 0 % 0 % 0 % 0 m²/s² 0 0 0.65 3
10:00 41 J/kg -0.4 K 0 % 0 % 0 % 0 m²/s² 0 0 0.62 80
11:00 372 J/kg -1.3 K 0 % 0 % 0 % 0 m²/s² 0 0 -0.52 3
12:00 667 J/kg -2.6 K 0 % 0 % 0 % 0 m²/s² 0 0 -1.88 80
13:00 605 J/kg -2.0 K 0 % 0 % 0 % 0 m²/s² 0 0 -2 80
14:00 695 J/kg -2.2 K 0 % 0 % 0 % 0 m²/s² 0 0 -1.57 80
15:00 476 J/kg -2.1 K 0 % 0 % 0 % 0 m²/s² 0 0 -1.14 61
16:00 492 J/kg -1.8 K 0 % 0 % 0 % 0 m²/s² 0 0 -0.54 61
17:00 491 J/kg -1.8 K 0 % 0 % 0 % 0 m²/s² 0 0 -0.21 3
18:00 290 J/kg -0.8 K 0 % 0 % 0 % 0 m²/s² 0 0 1.24 3
19:00 217 J/kg -0.4 K 0 % 0 % 0 % 0 m²/s² 0 0 1.37 3
20:00 236 J/kg -0.5 K 0 % 0 % 0 % 0 m²/s² 0 0 0.88 3
21:00 55 J/kg 1.1 K 0 % 0 % 0 % 0 m²/s² 0 0 2.18 3
22:00 0 J/kg 1.5 K 0 % 0 % 0 % 0 m²/s² 0 0 2.58 3
23:00 0 J/kg 2.4 K 0 % 0 % 0 % 0 m²/s² 0 0 3.87 3
 06:09     21:28    Daglengte: 15:19 Morgen
00:00 9 J/kg 3.0 K 0 % 0 % 0 % 0 m²/s² 0 0 4.17 3
01:00 6 J/kg 3.4 K 0 % 0 % 0 % 0 m²/s² 0 0 5.68 3
02:00 3 J/kg 3.6 K 0 % 0 % 0 % 0 m²/s² 0 0 7.47 3
03:00 0 J/kg 4.0 K 0 % 0 % 0 % 0 m²/s² 0 0 6.88 3
04:00 0 J/kg 4.3 K 0 % 0 % 0 % 0 m²/s² 0 0 6.79 2
05:00 0 J/kg 4.4 K 0 % 0 % 0 % 0 m²/s² 0 0 5.66 2
06:00 0 J/kg 4.7 K 0 % 0 % 0 % 0 m²/s² 0 0 5.12 2
07:00 0 J/kg 4.5 K 0 % 0 % 0 % 0 m²/s² 0 0 4.62 2
08:00 0 J/kg 4.9 K 0 % 0 % 0 % 0 m²/s² 0 0 5.08 1
09:00 0 J/kg 4.4 K 0 % 0 % 0 % 0 m²/s² 0 0 4.73 1
10:00 4 J/kg 4.1 K 0 % 0 % 0 % 0 m²/s² 0 0 4.49 1
11:00 19 J/kg 3.8 K 0 % 0 % 0 % 0 m²/s² 0 0 4.13 2
12:00 4 J/kg 3.8 K 0 % 0 % 0 % 0 m²/s² 0 0 4.43 2
13:00 27 J/kg 3.4 K 0 % 0 % 0 % 0 m²/s² 0 0 5.05 2
14:00 44 J/kg 3.2 K 0 % 0 % 0 % 0 m²/s² 0 0 5.93 1
15:00 74 J/kg 2.5 K 0 % 0 % 0 % 0 m²/s² 0 0 5.62 3
16:00 83 J/kg 2.2 K 0 % 0 % 0 % 0 m²/s² 0 0 5.32 3
17:00 50 J/kg 2.4 K 0 % 0 % 0 % 0 m²/s² 0 0 5.88 2
18:00 1 J/kg 3.5 K 0 % 0 % 0 % 0 m²/s² 0 0 7.25 2
19:00 0 J/kg 4.9 K 0 % 0 % 0 % 0 m²/s² 0 0 8.86 2
20:00 0 J/kg 5.9 K 0 % 0 % 0 % 0 m²/s² 0 0 10.19 1
21:00 0 J/kg 5.7 K 0 % 0 % 0 % 0 m²/s² 0 0 10.32 2
22:00 0 J/kg 6.1 K 0 % 0 % 0 % 0 m²/s² 0 0 11.23 3
23:00 0 J/kg 6.0 K 0 % 0 % 0 % 0 m²/s² 0 0 11.13 1
 06:11     21:26    Daglengte: 15:15 Dinsdag 03 Aug
00:00 0 J/kg 5.8 K 0 % 0 % 0 % 0 m²/s² 0 0 11.2 1
01:00 0 J/kg 5.6 K 0 % 0 % 0 % 0 m²/s² 0 0 10.85 3
02:00 0 J/kg 5.8 K 0 % 0 % 0 % 0 m²/s² 0 0 11.05 2
03:00 0 J/kg 5.6 K 0 % 0 % 0 % 0 m²/s² 0 0 10.58 3
04:00 0 J/kg 5.3 K 0 % 0 % 0 % 0 m²/s² 0 0 10.16 2
05:00 0 J/kg 5.2 K 0 % 0 % 0 % 0 m²/s² 0 0 9.61 2
06:00 0 J/kg 5.0 K 0 % 0 % 0 % 0 m²/s² 0 0 9.38 2
07:00 0 J/kg 5.2 K 0 % 0 % 0 % 0 m²/s² 0 0 9.46 2
08:00 0 J/kg 5.1 K 0 % 0 % 0 % 0 m²/s² 0 0 9.36 1
09:00 0 J/kg 4.8 K 0 % 0 % 0 % 0 m²/s² 0 0 8.85 0
10:00 0 J/kg 5.1 K 0 % 0 % 0 % 0 m²/s² 0 0 8.67 0
11:00 0 J/kg 5.4 K 0 % 0 % 0 % 0 m²/s² 0 0 8.43 1
12:00 0 J/kg 5.4 K 0 % 0 % 0 % 0 m²/s² 0 0 8.19 1
13:00 0 J/kg 5.0 K 0 % 0 % 0 % 0 m²/s² 0 0 7.73 1
14:00 5 J/kg 4.5 K 0 % 0 % 0 % 0 m²/s² 0 0 7.23 1
15:00 4 J/kg 4.4 K 0 % 0 % 0 % 0 m²/s² 0 0 7.22 0
16:00 5 J/kg 4.1 K 0 % 0 % 0 % 0 m²/s² 0 0 6.92 0
17:00 35 J/kg 2.9 K 0 % 0 % 0 % 0 m²/s² 0 0 5.87 1
18:00 35 J/kg 2.2 K 0 % 0 % 0 % 0 m²/s² 0 0 5.35 1
19:00 42 J/kg 2.8 K 0 % 0 % 0 % 0 m²/s² 0 0 6.22 1
20:00 30 J/kg 3.7 K 0 % 0 % 0 % 0 m²/s² 0 0 7.6 1
21:00 0 J/kg 4.0 K 0 % 0 % 0 % 0 m²/s² 0 0 8.41 2
22:00 0 J/kg 4.6 K 0 % 0 % 0 % 0 m²/s² 0 0 9.37 1
23:00 0 J/kg 4.9 K 0 % 0 % 0 % 0 m²/s² 0 0 9.91 1
 06:12     21:25    Daglengte: 15:13 Woensdag 04 Aug
00:00 0 J/kg 5.4 K 0 % 0 % 0 % 0 m²/s² 0 0 10.14 1
Temp Baro Wind Neerslag
  EWN Forecast EWN WRFDA DWD ICON FMI HIRLAM MET Norway GFS
 06:08     21:30    Daglengte: 15:22 Vandaag
02:00 14.9° 1009.2 hPa 3.8 m/s 0.0 mm 13.7° 1008.7 hPa 3.2 m/s 1.2 mm 15.2° 1009.5 hPa 3.3 m/s -1.9 mm 14.0° 1008.8 hPa 3.9 m/s 0.0 mm 13.5° 1009.3 hPa 3.5 m/s
05:00 14.2° 1008.3 hPa 4.0 m/s 0.0 mm 11.9° 1007.6 hPa 2.9 m/s 1.9 mm 14.5° 1008.6 hPa 4.3 m/s 0.0 mm 13.4° 1007.5 hPa 3.0 m/s 0.0 mm 12.5° 1008.6 hPa 3.6 m/s
08:00 14.5° 1008.6 hPa 4.6 m/s 0.0 mm 14.0° 1007.2 hPa 3.7 m/s 1.9 mm 15.2° 1008.6 hPa 5.2 m/s 0.0 mm 13.4° 1008.5 hPa 3.2 m/s 0.0 mm 14.7° 1008.7 hPa 4.2 m/s
11:00 16.0° 1009.4 hPa 4.2 m/s 0.7 mm 16.7° 1007.9 hPa 4.3 m/s 2.0 mm 17.5° 1009.7 hPa 4.7 m/s 0.6 mm 15.2° 1008.4 hPa 2.4 m/s 0.0 mm 19.4° 1009.2 hPa 4.9 m/s
14:00 17.6° 1009.4 hPa 4.6 m/s 4.1 mm 19.3° 1007.9 hPa 3.4 m/s 14.4 mm 17.2° 1010.4 hPa 4.7 m/s 2.2 mm 17.5° 1008.8 hPa 4.7 m/s 0.0 mm 21.0° 1009.2 hPa 5.1 m/s
17:00 18.2° 1009.7 hPa 5.5 m/s 2.4 mm 20.3° 1008.0 hPa 5.6 m/s 31.1 mm 18.2° 1010.0 hPa 5.2 m/s 0.8 mm 17.9° 1008.8 hPa 5.4 m/s 0.0 mm 20.3° 1010.0 hPa 5.4 m/s
20:00 16.4° 1010.4 hPa 3.7 m/s 0.0 mm 18.3° 1008.6 hPa 4.1 m/s 32.0 mm 17.0° 1010.6 hPa 3.7 m/s 0.4 mm 15.2° 1009.6 hPa 3.1 m/s 0.0 mm 17.5° 1010.8 hPa 4.4 m/s
23:00 14.9° 1011.7 hPa 1.8 m/s 0.0 mm 14.2° 1010.2 hPa 2.5 m/s 32.0 mm 16.0° 1011.8 hPa 1.3 m/s 0.1 mm 13.2° 1011.5 hPa 1.8 m/s 0.0 mm 13.5° 1012.5 hPa 2.4 m/s
 06:09     21:28    Daglengte: 15:19 Morgen
02:00 14.2° 1011.9 hPa 1.7 m/s 0.0 mm 12.2° 1010.5 hPa 2.5 m/s 32.0 mm 15.6° 1011.9 hPa 1.5 m/s 0.1 mm 12.6° 1011.5 hPa 1.5 m/s 0.0 mm 12.6° 1013.1 hPa 1.6 m/s
05:00 13.7° 1012.0 hPa 1.4 m/s 0.0 mm 13.1° 1010.6 hPa 0.7 m/s 32.0 mm 14.8° 1012.1 hPa 1.3 m/s 0.0 mm 12.0° 1011.8 hPa 1.7 m/s 0.0 mm 13.0° 1013.4 hPa 0.9 m/s
08:00 13.9° 1013.1 hPa 1.1 m/s 0.0 mm 13.1° 1011.6 hPa 0.8 m/s 32.9 mm 15.0° 1013.3 hPa 1.1 m/s 0.0 mm 12.8° 1012.8 hPa 1.5 m/s 0.0 mm 14.3° 1014.2 hPa 1.0 m/s
11:00 16.3° 1013.8 hPa 1.9 m/s 0.0 mm 14.7° 1012.2 hPa 0.8 m/s 34.8 mm 17.8° 1013.8 hPa 2.1 m/s 0.0 mm 15.8° 1013.9 hPa 3.1 m/s 0.0 mm 16.7° 1014.6 hPa 1.8 m/s
14:00 18.2° 1013.9 hPa 3.1 m/s 0.0 mm 19.0° 1012.0 hPa 1.5 m/s 34.8 mm 19.8° 1013.7 hPa 3.3 m/s 0.0 mm 17.2° 1014.6 hPa 3.4 m/s 0.0 mm 17.1° 1014.3 hPa 3.1 m/s
17:00 19.4° 1013.4 hPa 4.0 m/s 0.0 mm 19.7° 1011.8 hPa 4.1 m/s 34.9 mm 19.6° 1013.6 hPa 3.7 m/s 0.0 mm 19.5° 1013.7 hPa 2.1 m/s
20:00 17.6° 1013.6 hPa 3.7 m/s 0.0 mm 17.5° 1012.2 hPa 4.2 m/s 34.9 mm 18.6° 1013.7 hPa 3.1 m/s 0.0 mm 18.0° 1013.4 hPa 2.8 m/s
23:00 14.1° 1014.6 hPa 2.2 m/s 0.0 mm 12.4° 1012.9 hPa 2.6 m/s 34.9 mm 15.7° 1014.8 hPa 2.1 m/s 0.0 mm 14.7° 1014.0 hPa 2.7 m/s
 06:11     21:26    Daglengte: 15:15 Dinsdag 03 Aug
02:00 12.7° 1014.5 hPa 1.6 m/s 0.0 mm 10.9° 1012.7 hPa 1.6 m/s 34.9 mm 14.3° 1014.7 hPa 1.4 m/s 0.0 mm 13.8° 1013.3 hPa 2.6 m/s
05:00 12.2° 1014.0 hPa 1.5 m/s 0.0 mm 10.4° 1012.1 hPa 1.6 m/s 34.9 mm 13.7° 1014.3 hPa 1.6 m/s 0.0 mm 13.2° 1012.6 hPa 2.2 m/s
08:00 13.5° 1014.3 hPa 1.7 m/s 0.0 mm 13.6° 1012.4 hPa 2.0 m/s 34.9 mm 14.2° 1014.5 hPa 1.7 m/s 0.0 mm 13.9° 1012.6 hPa 2.5 m/s
11:00 17.4° 1014.4 hPa 2.4 m/s 0.0 mm 17.5° 1012.2 hPa 2.5 m/s 34.9 mm 17.9° 1014.7 hPa 1.6 m/s 0.0 mm 14.5° 1012.8 hPa 2.1 m/s
14:00 20.1° 1013.4 hPa 1.3 m/s 0.0 mm 20.4° 1011.3 hPa 2.4 m/s 34.9 mm 20.5° 1013.7 hPa 0.6 m/s 0.0 mm 14.8° 1012.6 hPa 2.1 m/s
17:00 21.9° 1012.2 hPa 2.1 m/s 0.0 mm 21.5° 1011.1 hPa 4.5 m/s 34.9 mm 22.0° 1012.5 hPa 1.5 m/s 0.0 mm 16.3° 1012.8 hPa 2.2 m/s
20:00 20.0° 1012.2 hPa 4.4 m/s 0.0 mm 19.9° 1011.6 hPa 4.8 m/s 34.9 mm 20.1° 1012.4 hPa 4.3 m/s 0.0 mm 16.9° 1013.1 hPa 2.2 m/s
23:00 16.6° 1013.3 hPa 3.0 m/s 0.0 mm 14.9° 1012.6 hPa 2.8 m/s 34.9 mm 17.1° 1013.5 hPa 3.0 m/s 0.0 mm 13.5° 1013.6 hPa 2.3 m/s
 06:12     21:25    Daglengte: 15:13 Woensdag 04 Aug
02:00 15.1° 1013.2 hPa 2.4 m/s 0.0 mm 13.2° 1012.8 hPa 3.0 m/s 34.9 mm 15.6° 1013.3 hPa 2.2 m/s 0.0 mm 14.0° 1013.4 hPa 2.2 m/s
05:00 13.8° 1012.4 hPa 1.5 m/s 7.6 mm 13.8° 1012.4 hPa 1.5 m/s 7.6 mm
08:00 13.2° 1013.0 hPa 1.7 m/s 8.6 mm 13.2° 1013.0 hPa 1.7 m/s 8.6 mm
11:00 13.9° 1013.8 hPa 2.4 m/s 12.1 mm 13.9° 1013.8 hPa 2.4 m/s 12.1 mm
14:00 14.2° 1014.1 hPa 3.0 m/s 16.1 mm 14.2° 1014.1 hPa 3.0 m/s 16.1 mm
17:00 15.6° 1014.7 hPa 1.8 m/s 16.6 mm 15.6° 1014.7 hPa 1.8 m/s 16.6 mm
20:00 15.2° 1014.7 hPa 0.8 m/s 16.8 mm 15.2° 1014.7 hPa 0.8 m/s 16.8 mm
23:00 12.9° 1015.2 hPa 0.7 m/s 16.8 mm 12.9° 1015.2 hPa 0.7 m/s 16.8 mm
 06:14     21:23    Daglengte: 15:09 Donderdag 05 Aug
02:00 12.1° 1014.5 hPa 1.3 m/s 16.8 mm 12.1° 1014.5 hPa 1.3 m/s 16.8 mm
05:00 11.3° 1013.0 hPa 2.0 m/s 16.8 mm 11.3° 1013.0 hPa 2.0 m/s 16.8 mm
08:00 13.2° 1012.0 hPa 2.6 m/s 16.8 mm 13.2° 1012.0 hPa 2.6 m/s 16.8 mm
11:00 16.7° 1010.9 hPa 3.9 m/s 16.8 mm 16.7° 1010.9 hPa 3.9 m/s 16.8 mm
14:00 17.8° 1009.1 hPa 5.3 m/s 16.8 mm 17.8° 1009.1 hPa 5.3 m/s 16.8 mm
17:00 17.0° 1007.2 hPa 6.1 m/s 17.3 mm 17.0° 1007.2 hPa 6.1 m/s 17.3 mm
20:00 14.0° 1005.4 hPa 5.7 m/s 17.9 mm 14.0° 1005.4 hPa 5.7 m/s 17.9 mm
23:00 13.5° 1003.8 hPa 5.5 m/s 18.6 mm 13.5° 1003.8 hPa 5.5 m/s 18.6 mm
 06:15     21:21    Daglengte: 15:06 Vrijdag 06 Aug
02:00 14.1° 1002.9 hPa 4.3 m/s 18.7 mm 14.1° 1002.9 hPa 4.3 m/s 18.7 mm
05:00 14.3° 1001.4 hPa 4.8 m/s 19.6 mm 14.3° 1001.4 hPa 4.8 m/s 19.6 mm
08:00 14.4° 1000.4 hPa 5.8 m/s 20.5 mm 14.4° 1000.4 hPa 5.8 m/s 20.5 mm
11:00 14.9° 999.8 hPa 6.7 m/s 25.9 mm 14.9° 999.8 hPa 6.7 m/s 25.9 mm
14:00 17.7° 1000.1 hPa 7.2 m/s 27.4 mm 17.7° 1000.1 hPa 7.2 m/s 27.4 mm
17:00 19.5° 1001.1 hPa 7.4 m/s 28.9 mm 19.5° 1001.1 hPa 7.4 m/s 28.9 mm
20:00 17.8° 1002.7 hPa 6.6 m/s 29.8 mm 17.8° 1002.7 hPa 6.6 m/s 29.8 mm
23:00 15.6° 1004.9 hPa 7.3 m/s 30.4 mm 15.6° 1004.9 hPa 7.3 m/s 30.4 mm
 06:17     21:19    Daglengte: 15:02 Zaterdag 07 Aug
02:00 14.9° 1005.9 hPa 5.8 m/s 30.5 mm 14.9° 1005.9 hPa 5.8 m/s 30.5 mm
05:00 13.9° 1007.0 hPa 5.4 m/s 30.6 mm 13.9° 1007.0 hPa 5.4 m/s 30.6 mm
08:00 14.8° 1007.7 hPa 5.6 m/s 30.6 mm 14.8° 1007.7 hPa 5.6 m/s 30.6 mm
11:00 17.7° 1008.6 hPa 6.3 m/s 30.8 mm 17.7° 1008.7 hPa 6.3 m/s 30.8 mm
14:00 20.8° 1008.4 hPa 5.5 m/s 30.8 mm 20.8° 1008.4 hPa 5.5 m/s 30.8 mm
17:00 21.2° 1008.3 hPa 3.7 m/s 30.9 mm 21.2° 1008.3 hPa 3.7 m/s 30.9 mm
20:00 19.3° 1008.2 hPa 3.1 m/s 30.9 mm 19.3° 1008.2 hPa 3.1 m/s 30.9 mm
23:00 15.8° 1008.5 hPa 1.9 m/s 32.6 mm 15.8° 1008.5 hPa 1.9 m/s 32.6 mm
 06:18     21:17    Daglengte: 14:59 Zondag 08 Aug
02:00 15.7° 1007.9 hPa 3.4 m/s 32.6 mm 15.7° 1007.9 hPa 3.4 m/s 32.6 mm
08:00 16.1° 1006.7 hPa 4.7 m/s 36.0 mm 16.1° 1006.7 hPa 4.7 m/s 36.0 mm
14:00 21.5° 1008.2 hPa 8.0 m/s 36.7 mm 21.5° 1008.2 hPa 8.0 m/s 36.7 mm
20:00 16.3° 1009.0 hPa 9.1 m/s 39.5 mm 16.3° 1009.0 hPa 9.1 m/s 39.5 mm
 06:20     21:15    Daglengte: 14:55 Maandag 09 Aug
02:00 16.1° 1012.4 hPa 9.6 m/s 39.9 mm 16.1° 1012.4 hPa 9.6 m/s 39.9 mm
08:00 16.0° 1015.3 hPa 7.2 m/s 40.6 mm 16.0° 1015.3 hPa 7.2 m/s 40.6 mm
14:00 17.8° 1018.9 hPa 7.8 m/s 42.8 mm 17.8° 1018.9 hPa 7.8 m/s 42.8 mm
20:00 17.5° 1021.1 hPa 5.4 m/s 43.0 mm 17.5° 1021.1 hPa 5.4 m/s 43.0 mm
 06:21     21:14    Daglengte: 14:53 Dinsdag 10 Aug
02:00 15.0° 1022.4 hPa 4.7 m/s 43.1 mm 15.0° 1022.4 hPa 4.7 m/s 43.1 mm
08:00 15.9° 1022.6 hPa 3.6 m/s 43.1 mm 15.9° 1022.6 hPa 3.6 m/s 43.1 mm
14:00 20.0° 1023.2 hPa 5.4 m/s 44.9 mm 20.0° 1023.2 hPa 5.4 m/s 44.9 mm
20:00 19.2° 1019.8 hPa 3.4 m/s 0.5 mm
 06:23     21:12    Daglengte: 14:49 Woensdag 11 Aug
02:00 15.1° 1020.7 hPa 1.6 m/s 0.2 mm
08:00 15.4° 1020.6 hPa 1.5 m/s 0.0 mm
14:00 21.6° 1020.5 hPa 2.6 m/s 0.3 mm
20:00 19.6° 1020.2 hPa 2.5 m/s 0.3 mm
 06:25     21:10    Daglengte: 14:45 Donderdag 12 Aug
02:00 15.4° 1020.6 hPa 0.2 m/s 0.1 mm
08:00 15.6° 1020.3 hPa 0.5 m/s 0.1 mm
14:00 22.5° 1020.0 hPa 1.2 m/s 0.2 mm
20:00 20.5° 1019.6 hPa 2.3 m/s 0.2 mm
 06:26     21:08    Daglengte: 14:42 Vrijdag 13 Aug
02:00 16.4° 1020.0 hPa 0.5 m/s 0.1 mm
08:00 16.6° 1019.8 hPa 1.0 m/s 0.0 mm
14:00 22.7° 1019.7 hPa 2.2 m/s 0.4 mm
20:00 20.8° 1019.1 hPa 1.4 m/s 0.1 mm
 06:28     21:06    Daglengte: 14:38 Zaterdag 14 Aug
02:00 16.8° 1019.4 hPa 0.9 m/s 0.2 mm
08:00 16.4° 1019.1 hPa 1.0 m/s 0.3 mm
14:00 22.5° 1019.0 hPa 1.9 m/s 0.7 mm
20:00 20.3° 1018.3 hPa 2.1 m/s 0.3 mm
 06:29     21:04    Daglengte: 14:35 Zondag 15 Aug
02:00 16.1° 1018.5 hPa 0.7 m/s 0.1 mm
08:00 16.3° 1018.1 hPa 1.6 m/s 0.2 mm
14:00 22.0° 1018.0 hPa 2.9 m/s 0.6 mm
20:00 19.7° 1017.7 hPa 2.8 m/s 0.6 mm
FMI Hirlam - 7.5 km EWN WRFDA - 12 km DWD ICON - 7 km GFS - 25 km Basiskaart






























































Updatetijd (Europe/Amsterdam) Resolutie Lengte Stap
FMI Hirlam 19:00, 01:00, 07:00, 13:00 7.5 km 49h 1h
EWN WRFDA 22:15, 04:15, 10:15, 16:15 12 km 73h 1h
DWD ICON 23:45, 05:45, 11:45, 17:45 7 km 75h 1h
GFS 20:15, 02:15, 08:15, 14:15 25 km 237h 3h
30+ mm
25-30 mm
20-25 mm
15-20 mm
10-15 mm
6-10 mm
4-6 mm
2-4 mm
1-2 mm
0.5-1 mm
0.2-0.5 mm
0.1-0.2 mm
30+ mm
25-30 mm
20-25 mm
15-20 mm
10-15 mm
6-10 mm
4-6 mm
2-4 mm
1-2 mm
0.5-1 mm
0.2-0.5 mm
0.1-0.2 mm
Sneeuwval
Natte sneeuw
Hagel
Vorst
30+ mm
25-30 mm
20-25 mm
15-20 mm
10-15 mm
6-10 mm
4-6 mm
2-4 mm
1-2 mm
0.5-1 mm
0.2-0.5 mm
0.1-0.2 mm
Sneeuwval
Natte sneeuw
Hagel
Vorst
Onweer
50 mm
40 mm
30 mm
26 mm
22 mm
18 mm
14 mm
10 mm
9 mm
8 mm
7 mm
6 mm
5 mm
4.5 mm
4 mm
3.5 mm
3 mm
2.5 mm
2 mm
1.5 mm
1 mm
0.8 mm
0.6 mm
0.4 mm
0.2 mm
0.05 mm
35°
30°
25°
20°
15°
10°
-5°
-10°
-15°
-20°
-25°
-30°
-35°
33> m/s
29 m/s
25 m/s
21 m/s
17 m/s
14 m/s
11 m/s
8 m/s
5 m/s
3 m/s
0 m/s
2600 J/kg
2400 J/kg
2200 J/kg
2000 J/kg
1800 J/kg
1600 J/kg
1400 J/kg
1200 J/kg
1000 J/kg
800 J/kg
600 J/kg
400 J/kg
200 J/kg
70 dBZ
65 dBZ
60 dBZ
55 dBZ
50 dBZ
45 dBZ
40 dBZ
35 dBZ
30 dBZ
25 dBZ
20 dBZ
15 dBZ
10 dBZ
5 dBZ
-1 K
-2 K
-3 K
-4 K
-5 K
-6 K
-7 K
-8 K
-9 K
950 m²/s²
900 m²/s²
850 m²/s²
800 m²/s²
750 m²/s²
700 m²/s²
650 m²/s²
600 m²/s²
550 m²/s²
500 m²/s²
450 m²/s²
400 m²/s²
350 m²/s²
300 m²/s²
250 m²/s²
200 m²/s²
150 m²/s²
100 m²/s²
46 m/s
44 m/s
42 m/s
40 m/s
38 m/s
36 m/s
34 m/s
32 m/s
30 m/s
28 m/s
26 m/s
24 m/s
22 m/s
20 m/s
16 m/s
12 m/s
8 m/s
4 m/s
30 m/s
28 m/s
26 m/s
24 m/s
22 m/s
20 m/s
18 m/s
16 m/s
14 m/s
12 m/s
10 m/s
8 m/s
6 m/s
4 m/s
2 m/s
3.0
2.8
2.6
2.4
2.2
2.0
1.8
1.6
1.4
1.2
1.0
0.8
0.6
0.4
0.2
15
14
13
12
11
10
9
8
7
6
5
4
3
2
1
90%
80%
70%
60%
50%
40%
30%
20%
10%
42
40
38
36
34
32
30
28
26
24
22
20
18
16
14
12
90+ cm
80-90 cm
70-80 cm
60-70 cm
50-60 cm
40-50 cm
30-40 cm
20-30 cm
10-20 cm
1-10 cm
Sneeuwval
Natte sneeuw
Regen
>120 mm
115 mm
110 mm
105 mm
100 mm
95 mm
90 mm
85 mm
80 mm
75 mm
70 mm
65 mm
60 mm
55 mm
50 mm
45 mm
45 mm
40 mm
35 mm
30 mm
25 mm
20 mm
15 mm
10 mm
5 mm
0.1 mm
960 hPa
880 hPa
800 hPa
720 hPa
640 hPa
560 hPa
584 gpdm
568 gpdm
552 gpdm
536 gpdm
520 gpdm
504 gpdm
488 gpdm
Extreem zwaar Noodweer Kans op onweer
15% 15% 5% 50% 15%

Dag




Kaart






35°
30°
25°
20°
15°
10°
-5°
-10°
-15°
-20°
-25°
-30°
-35°
33> m/s
29 m/s
25 m/s
21 m/s
17 m/s
14 m/s
11 m/s
8 m/s
5 m/s
3 m/s
0 m/s
Extreem zwaar Noodweer Kans op onweer
15% 15% 5% 50% 15%
>120 mm
115 mm
110 mm
105 mm
100 mm
95 mm
90 mm
85 mm
80 mm
75 mm
70 mm
65 mm
60 mm
55 mm
50 mm
45 mm
45 mm
40 mm
35 mm
30 mm
25 mm
20 mm
15 mm
10 mm
5 mm
0.1 mm
Onweer risico kaarten - De groene en gele kleur geeft de kans op onweer aan binnen 40 km van een punt. Oranje, rood en violet hebben hetzelfde niveau zoals je het ziet op estofex.org waaronder ook de kans op hagel en supercells.

dBZ - dBZ staat voor decibel ten opzichte van Z.

Cape - Convective available potential energy (CAPE), is de totale hoeveelheid energie die een luchtpakketje nodig heeft om zover mogelijk te stijgen in de atmosfeer.

K Index - K-Index wordt berekend door de Vertical Totals (VT) en het verschil tussen de 850 hPa temperatuur en de 700 hPa dauwpuntsdepressie (Tdd 700) bij elkaar op te tellen.

TT Index - Convectie index wordt gebruikt voor het voorspellen van zware buien of onweer.

WRF - The Weather Research and Forecasting (WRF) is een volgende generatie mesoscale numeriek weersvoorspelling systeem ontworpen om zowel de operationele planning als het atmosferisch onderzoek te dienen. WRF is a cooperatie tussen